Change the Weather History Date:

Tuesday, November 6, 2012

  Actual Average Record
Temperature  
Mean Temperature 70 °F -  
Max Temperature 77 °F 67 °F 79 °F (2013)
Min Temperature 62 °F 55 °F 41 °F (2006)
Cooling Degree Days 4    
Growing Degree Days 20 (Base 50)    
Moisture  
Dew Point 63 °F    
Average Humidity 76    
Maximum Humidity 88    
Minimum Humidity 59    
Precipitation  
Precipitation 0.00 in 0.08 in - ()
Sea Level Pressure  
Sea Level Pressure 29.98 in    
Wind  
Wind Speed 7 mph ()    
Max Wind Speed 12 mph    
Max Gust Speed -    
Visibility 6.6 miles    
Events      
Averages and records for this station are not official NWS values.
T = Trace of Precipitation, MM = Missing Value Source: Averaged Metar Reports

Daily Weather History Graph

Daily Weather History Graph

Search for Another Location

Airport or City:

Trip Planner

Search our weather history database for the weather conditions in past years. The results will help you decide how hot, cold, wet, or windy it might be!

Date:

Astronomy

Nov. 06, 2012 Rise Set
Actual Time 6:45 AM EET 5:19 PM EET
Civil Twilight 6:19 AM EET 5:46 PM EET
Nautical Twilight 5:48 AM EET 6:16 PM EET
Astronomical Twilight 5:19 AM EET 6:46 PM EET
Moon 11:36 PM EET 12:28 PM EET
Length of Visible Light 11h 27m
Length of Day
10h 33m
Waning Gibbous, 56% of the Moon is Illuminated
Nov 6
Waning Gibbous
Nov 7
Last Quarter
Nov 14
New
Nov 20
First Quarter
Nov 28
Full

Hourly Weather History & Observations

Time (EET) Temp. Dew Point Humidity Pressure Visibility Wind Dir Wind Speed Gust Speed Precip Events Conditions
12:20 AM 62.6 °F 57.2 °F 82% 30.01 in - South 10.4 mph - N/A   Clear
12:50 AM 62.6 °F 57.2 °F 82% 30.01 in - SSE 9.2 mph - N/A   Clear
1:20 AM 62.6 °F 57.2 °F 82% 30.01 in - South 10.4 mph - N/A   Clear
1:50 AM 64.4 °F 59.0 °F 83% 29.98 in 6.2 mi South 10.4 mph - N/A   Partly Cloudy
2:00 AM 64 °F 59 °F 79% 30.00 in 6 mi South 10.4 mph - -   Scattered Clouds
2:20 AM 64.4 °F 59.0 °F 83% 29.98 in 6.2 mi South 6.9 mph - N/A   Partly Cloudy
2:50 AM 64.4 °F 59.0 °F 83% 29.98 in 6.2 mi SSE 10.4 mph - N/A   Partly Cloudy
3:50 AM 64.4 °F 59.0 °F 83% 29.98 in 6.2 mi SSE 8.1 mph - N/A   Partly Cloudy
4:50 AM 62.6 °F 59.0 °F 88% 29.98 in 6.2 mi South 9.2 mph - N/A   Partly Cloudy
5:20 AM 62.6 °F 59.0 °F 88% 29.98 in 6.2 mi SSE 9.2 mph - N/A   Partly Cloudy
5:50 AM 64.4 °F 57.2 °F 77% 29.98 in 6.2 mi South 9.2 mph - N/A   Scattered Clouds
6:20 AM 64.4 °F 57.2 °F 77% 29.98 in 6.2 mi SSE 10.4 mph - N/A   Scattered Clouds
6:50 AM 66.2 °F 57.2 °F 73% 29.98 in 6.2 mi South 10.4 mph - N/A   Mostly Cloudy
7:20 AM 66.2 °F 57.2 °F 73% 29.98 in 6.2 mi South 11.5 mph - N/A   Scattered Clouds
7:50 AM 68.0 °F 59.0 °F 73% 29.98 in 6.2 mi SSE 11.5 mph - N/A   Scattered Clouds
8:00 AM 68 °F 58 °F 64% 30.00 in 12 mi SSE 11.5 mph - -   Scattered Clouds
8:20 AM 69.8 °F 59.0 °F 68% 30.01 in 6.2 mi South 10.4 mph - N/A   Scattered Clouds
8:50 AM 71.6 °F 60.8 °F 69% 29.98 in - SSE 8.1 mph - N/A   Clear
9:20 AM 75.2 °F 62.6 °F 65% 29.98 in - SSE 8.1 mph - N/A   Clear
9:50 AM 77.0 °F 64.4 °F 65% 29.98 in - SE 5.8 mph - N/A   Clear
10:20 AM 77.0 °F 64.4 °F 65% 29.98 in - Calm Calm - N/A   Clear
10:50 AM 77.0 °F 64.4 °F 65% 29.98 in - Variable 3.5 mph - N/A   Clear
11:20 AM 77.0 °F 66.2 °F 69% 29.98 in - North 5.8 mph - N/A   Clear
11:50 AM 77.0 °F 68.0 °F 74% 29.98 in - North 6.9 mph - N/A   Clear
12:20 PM 77.0 °F 68.0 °F 74% 29.98 in - North 4.6 mph - N/A   Clear
12:50 PM 77.0 °F 66.2 °F 69% 29.98 in 6.2 mi NNW 6.9 mph - N/A   Partly Cloudy
1:20 PM 77.0 °F 66.2 °F 69% 29.98 in 6.2 mi NNW 8.1 mph - N/A   Partly Cloudy
1:50 PM 77.0 °F 66.2 °F 69% 29.98 in 6.2 mi NNW 6.9 mph - N/A   Partly Cloudy
2:00 PM 77 °F 65 °F 59% 29.98 in 12 mi NNW 6.9 mph - -   Scattered Clouds
2:20 PM 77.0 °F 66.2 °F 69% 29.98 in 6.2 mi NE 4.6 mph - N/A   Partly Cloudy
2:50 PM 77.0 °F 66.2 °F 69% 29.98 in 6.2 mi East 5.8 mph - N/A   Scattered Clouds
3:20 PM 77.0 °F 66.2 °F 69% 29.98 in 6.2 mi East 3.5 mph - N/A   Scattered Clouds
3:50 PM 75.2 °F 66.2 °F 73% 29.98 in 6.2 mi East 6.9 mph - N/A   Scattered Clouds
4:20 PM 75.2 °F 66.2 °F 73% 29.98 in 6.2 mi East 8.1 mph - N/A   Scattered Clouds
4:50 PM 73.4 °F 64.4 °F 73% 29.95 in 6.2 mi East 4.6 mph - N/A   Scattered Clouds
5:20 PM 73.4 °F 64.4 °F 73% 29.95 in 6.2 mi East 4.6 mph - N/A   Scattered Clouds
5:50 PM 71.6 °F 66.2 °F 83% 29.95 in 6.2 mi East 3.5 mph - N/A   Partly Cloudy
6:20 PM 71.6 °F 66.2 °F 83% 29.95 in 6.2 mi Calm Calm - N/A   Partly Cloudy
6:50 PM 69.8 °F 64.4 °F 83% 29.98 in 6.2 mi South 3.5 mph - N/A   Partly Cloudy
7:20 PM 69.8 °F 64.4 °F 83% 29.98 in 6.2 mi South 5.8 mph - N/A   Partly Cloudy
7:50 PM 69.8 °F 64.4 °F 83% 29.98 in 6.2 mi South 6.9 mph - N/A   Partly Cloudy
8:00 PM 71 °F 64 °F 73% 29.99 in 9 mi South 6.9 mph - -   Scattered Clouds
8:20 PM 69.8 °F 64.4 °F 83% 29.98 in 6.2 mi South 9.2 mph - N/A   Partly Cloudy
8:50 PM 69.8 °F 64.4 °F 83% 29.98 in 6.2 mi South 5.8 mph - N/A   Partly Cloudy
9:20 PM 69.8 °F 64.4 °F 83% 29.98 in 6.2 mi South 8.1 mph - N/A   Partly Cloudy
9:50 PM 69.8 °F 64.4 °F 83% 30.01 in 6.2 mi South 9.2 mph - N/A   Partly Cloudy
10:20 PM 69.8 °F 64.4 °F 83% 30.01 in 6.2 mi South 6.9 mph - N/A   Partly Cloudy
10:50 PM 68.0 °F 64.4 °F 88% 30.01 in 6.2 mi South 6.9 mph - N/A   Partly Cloudy
11:20 PM 68.0 °F 64.4 °F 88% 30.01 in 6.2 mi SSW 5.8 mph - N/A   Partly Cloudy
11:50 PM 68.0 °F 64.4 °F 88% 30.01 in 6.2 mi South 5.8 mph - N/A   Partly Cloudy